Regional Weather Roundup
Issued by NWS Wakefield, VA

Home | Current Version | Previous Version | Graphics & Text | Print | Product List | Glossary On
Versions: 1 2 3 4 5 6 7 8 9 10 11 12 13 14 15 16 17 18 19 20 21 22 23 24 25 26 27 28 29 30 31 32 33 34 35 36 37 38 39 40 41 42 43 44 45 46 47 48 49 50
293
ASUS41 KAKQ 271615
RWRAKQ

REGIONAL WEATHER ROUNDUP
NATIONAL WEATHER SERVICE WAKEFIELD VA
1200 PM EDT SAT AUG 27 2016

Note: "fair" indicates few or no clouds below 12,000 feet with no
significant weather and/or obstructions to visibility. * = Denotes
station may not report precipitation (e.g., rain,snow,etc.),
thunder or fog.

VAZ042-051-052>054-056-271700-
NORTHERN VIRGINIA

CITY           SKY/WX    TMP DP  RH WIND       PRES   REMARKS
WASH NATIONAL  MOSUNNY   89  66  46 E10       30.19R
DULLES         MOSUNNY   88  64  44 VRB7      30.19S
FORT BELVOIR   SUNNY     88  66  49 VRB5      30.18R
QUANTICO       NOT AVBL
FREDERICKSBRG*   N/A     89  69  52 E9        30.17S
STAFFORD*      SUNNY     88  66  48 SE9       30.22S
WARRENTON      SUNNY     89  62  40 E9        30.19S
CULPEPER*      PTSUNNY   88  72  58 SE3       30.19S
MANASSAS*      SUNNY     88  66  48 SE12      30.19R
LEESBURG*      SUNNY     88  68  51 NE6       30.20F
WINCHESTER     SUNNY     86  64  48 SE5       30.20F
FRONT ROYAL*   FAIR      84  72  65 E3        30.19F
LURAY*         FAIR      84  68  58 CALM      30.21S
$$

VAZ048-049-060>072-079>083-271700-
CENTRAL AND SOUTH CENTRAL VIRGINIA

CITY           SKY/WX    TMP DP  RH WIND       PRES   REMARKS
RICHMOND       MOSUNNY   90  67  46 NE9       30.15S
CHESTERFIELD*  FAIR      91  63  38 NE8       30.16S
PETERSBURG*    CLOUDY    91  67  44 NE10      30.15S
HANOVER        SUNNY     88  67  49 VRB7      30.18S
TAPPAHANNOCK*  SUNNY     89  62  41 NE9       30.17S
QUINTON*       FAIR      90  67  46 E10G16    30.15S
CHARLOTTSVILLE SUNNY     88  69  53 E7        30.19S
GORDONSVILLE*  FAIR      90  72  55 E5        30.18S HX  96
ORANGE*          N/A     88  68  51 E3        30.21S
LOUISA*        MOSUNNY   91  73  55 SE6       30.17F HX 100
BUMPASS*       FAIR      88  71  55 NE7       30.18R
FARMVILLE*     PTSUNNY   90  73  56 NE8       30.15S HX  98
CREWE*         PTSUNNY   90  74  58 NE5       30.15S HX  99
FORT PICKETT*  NOT AVBL
CHASE CITY*    CLOUDY    91  73  55 E8        30.14S HX  99
CLARKSVILLE*   FAIR      91  73  55 SE6       30.13S HX 100
SOUTH HILL*    SUNNY     89  75  62 NE6       30.20R HX  99
LAWRENCEVILLE* FAIR      90  73  58 NE6       30.14R HX  98
EMPORIA*       SUNNY     90  72  55 NE8       30.14S HX  96
$$

VAZ088>098-271700-
SOUTHEAST VIRGINIA

CITY           SKY/WX    TMP DP  RH WIND       PRES   REMARKS
NORFOLK        SUNNY     85  73  67 E14       30.13S
VIRGINIA BEACH MOSUNNY   91  73  55 E9        30.12S HX  99
NORFOLK NAVAL  MOSUNNY   87  73  62 E9        30.14F
WEST POINT*    SUNNY     90  63  41 E10G16    30.16S
SALUDA*        FAIR      85  74  69 E9        30.15S
NEWPORT NEWS   SUNNY     90  71  53 E13       30.13F HX  96
LANGLEY AFB    SUNNY     88  73  61 NE12      30.13S HX  96
FORT EUSTIS    SUNNY     92  69  45 E9        30.11F HX  97
WILLIAMSBURG*  SUNNY     95  68  41 E7        30.14F HX  99
HR EXEC AP*    FAIR      91  72  52 NE9       30.14S HX  98
FRANKLIN*      SUNNY     92  68  45 E9        30.12F HX  95
US460-WAKEFLD  SUNNY     91  68  46 E8        30.13S HX  95
$$

VAZ020-022-025-037-045-271700-
WEST CENTRAL AND SOUTHWEST VIRGINIA

CITY           SKY/WX    TMP DP  RH WIND       PRES   REMARKS
STAUNTON*      SUNNY     83  70  63 CALM      30.24S
WAYNESBORO*    FAIR      83  68  59 E8        30.23F
HOT SPRINGS VA SUNNY     76  66  71 E8        30.35S
LYNCHBURG      MOSUNNY   87  73  62 VRB7      30.20S
DANVILLE       SUNNY     90  75  61 NE5       30.15S HX 100
SOUTH BOSTON*  PTSUNNY   92  74  55 SE6       30.14S HX 100
MARTINSVILLE   SUNNY     87  73  63 CALM      30.21S HX  95
ROANOKE        MOSUNNY   86  72  62 CALM      30.22S
BLACKSBURG     SUNNY     84  72  67 E5        30.29S
DUBLIN*        MOSUNNY   83  74  73 E5        30.27S
MARION*        SUNNY     83  70  64 NE7       30.29F
HILLSVILLE*    PTSUNNY   81  73  75 CALM      30.28R
RICHLANDS*     FAIR      83  69  63 SE7       30.26F
WISE*          SUNNY     84  57  39 SE7       30.26F
ABINGDON*      SUNNY     87  66  49 CALM      30.23S
$$

MDZ021>025-VAZ099-100-271700-
SOUTHERN MARYLAND AND THE DELMARVA PENINSULA

CITY           SKY/WX    TMP DP  RH WIND       PRES   REMARKS
PATUXENT RIVER MOSUNNY   86  64  47 E9        30.17S
BAY BRIDGE APT SUNNY     84  68  58 E5        30.18S
LEONARDTOWN    SUNNY     84  64  51 E5        30.19R
DOVER          SUNNY     84  69  61 VRB6      30.16F
GEORGETOWN     NOT AVBL
EASTON         SUNNY     86  72  62 NE5       30.21S
CAMBRIDGE      SUNNY     84  63  48 E9        30.17R
SALISBURY      SUNNY     87  63  44 NE10      30.16S
OCEAN CITY     SUNNY     84  70  62 NE10      30.16S
WALLOPS ISLAND SUNNY     85  61  44 NE12      30.15S
ACCOMACK*      SUNNY     87  61  40 E14       30.15S
$$

NCZ012>017-030>032-271700-
NORTH CENTRAL AND EASTERN NORTH CAROLINA

CITY           SKY/WX    TMP DP  RH WIND       PRES   REMARKS
ROANOKE RAPIDS FAIR      90  77  66 E5        30.12F HX 102
RALEIGH        MOSUNNY   93  72  50 E9        30.13S HX 101
ELIZABETH CITY SUNNY     91  71  51 NE12      30.11F HX  97
AHOSKIE*       SUNNY     87  74  65 CALM      30.12S HX  96
EDENTON*       MOSUNNY   91  74  56 CALM      30.11F HX 100
CURRITUCK*       N/A     88  74  64 NE8       30.12S HX  96
KILL DEVIL HLS SUNNY     90  80  71 NE5       30.10F HX 106
MANTEO         SUNNY     86  77  73 NE7       30.11F HX  97
CAPE HATTERAS  SUNNY     87  74  64 VRB5      30.11S HX  95
TARBORO*       FAIR      88  78  72 SE3       30.13S HX 102
GOLDSBORO      MOSUNNY   91  75  59 NE5       30.11S HX 101
WASHINGTON     SUNNY     88  76  67 E3        30.12S HX  98
GREENVILLE     CLOUDY    90  75  62 CALM      30.13S HX 100
NEW BERN       SUNNY     88  73  61 NE5       30.13S HX  95
WILMINGTON     SUNNY     88  72  58 E9        30.11S
$$

VAZ048-271700-
ELSEWHERE

CITY           SKY/WX    TMP DP  RH WIND       PRES   REMARKS
HARRISBURG PA  CLOUDY    85  69  58 CALM      30.19F
BALTIMORE      MOSUNNY   85  65  51 E9        30.18F
ANNAPOLIS      SUNNY     84  68  58 E8        30.18S
ANDREWS AFB    SUNNY     87  66  49 SE7       30.18S
PHILADELPHIA   MOSUNNY   87  59  38 E7        30.18S
HENDERSON NC   MOSUNNY   87  73  63 NE5       30.14F
GREENSBORO     MOSUNNY   89  75  63 E8        30.16S HX  99
ROCKY MOUNT    MOSUNNY   90  76  63 VRB3      30.12F HX 101
$$

VAZ100-271700-
MARINE

STATION/POSITION TIME  TEMP    WIND        PRES    WAVE   SWELL
                       AIR SEA DIR/SP/G            HT/PER HT/PER
                 (UTC) (F)     (DEG/KT/KT) (MB)    (FT/S) (FT/S)
BRANDYWINE LGT   1500   79      40/  9/ 10   N/A
CAPE MAY NJ      1500   84 76   60/  6/ 11 1021.1R
LEWES DE         1500   77 76   70/ 10/ 12 1021.6R
OCEAN-CITY-INLET 1500   80 74   80/  6/ 11 1021.6R
WACHAPREAGUE VA  1500   83 83   50/ 12/ 16 1020.9R
THOMAS POINT MD  1600   82 83   90/  7/  8 1023.4R
GOOSES REEF MD   1600   84 83   70/  8/ 10 1022.3R   1/ 2
COVE POINT MD    1500   82     100/  7/  8 1022.2R
SOLOMONS ISLAND  1500   83 84   80/  8/ 10   N/A
PINEY POINT MD   1500          110/ 13/ 14   N/A
POTOMAC MD       1600   83 83   70/  8/ 10 1020.4S   1/ 3
CAMBRIDGE MD     1500   82 84   70/ 10/ 13 1020.9R
LEWISETTA VA     1500   82 83  100/  9/ 11 1021.0R
RAPPAHANNOCK LGT 1500           70/ 10/ 11 1021.4R
STINGRAY PT      1600   83 84  340/  8/ 10 1021.4F   1/ 3
YORK RVR RNG VA  1500   83      60/  9/ 11 1020.2R
YORKTOWN VA      1500   84 83   80/ 11/ 13 1020.3S
JAMESTOWN VA     1600   88 86   30/  6/ 12   N/A     0
DOMINION TERM VA 1500   84      80/  9/ 13 1020.6R
KIPTOPEKE VA     1500      81   60/ 10/ 15   N/A
CHES BAY BRIDGE  1500   81 81   40/ 14/ 16 1020.2R
CAPE HENRY VA    1500   80      30/  9/ 12   N/A
WILLOUBY STN VA  1500   83      60/  9/ 10   N/A
CAPE HENRY BUOY  1512      79                N/A     2/ 9
1ST LANDING BUOY 1600   80 80   60/ 12/ 14 1019.9F   2/ 3
CAPE CHARLES BUO 1526      78                N/A     2/ 9
OFFSHORE WE BUOY 1521      80                N/A     3/10   2/11
64NM E OF VA BCH 1550   81 81   20/  8/ 10 1019.2F   2/ 7   2/ 7
DUCK PIER NC     1500   80 62   10/  4/  5 1019.3R
44100 DUCK FRF   1505      80                N/A     2/ 8
44056 DUCK FRF   1511      79                N/A     2/11   2/11
OREGON INLET NC  1500   83 82   20/  6/  9 1019.6F
HATTERAS NC      1500   82 83  320/  5/  6 1019.4S
DIAMOND SHLS NC  1550   82 85   20/  6/  8 1019.7S   3/10   3/10
CAPE LOOKOUT NC  1600   84      70/  5/  6 1019.2F
$$




USA.gov is the U.S. government's official web portal to all federal, state and local government web resources and services.